Location: Piotrkow Trybunalski
(51.4000°N, 19.6830°E)
Time: 03:42:01
(UTC+02:00)

A-11 Canister half - Pass Details

Date: 06 February 2023
Orbit: 1526 x 1682 km, 47.3° (Epoch: 24 March)

Event Time Altitude Azimuth Distance (km) Brightness Sun altitude
Rises 11:00:24 0° 286° (WNW) 4,704 11.3 21.9°
Reaches altitude 10° 11:03:46 10° 278° (W) 3,734 10.9 22.0°
Maximum altitude 11:11:51 34° 219° (SW) 2,396 10.8 22.3°
Drops below altitude 10° 11:20:09 10° 159° (SSE) 3,823 12.9 22.5°
Sets 11:23:40 0° 151° (SSE) 4,830 12.8 22.6°
